Regional Weather Roundup
Issued by NWS New Orleans/Baton Rouge, LA

Home | Current Version | Previous Version | Graphics & Text | Print | Product List | Glossary On
Versions: 1 2 3 4 5 6 7 8 9 10 11 12 13 14 15 16 17 18 19 20 21 22 23 24 25 26 27 28 29 30 31 32 33 34 35 36 37 38 39 40 41 42 43 44 45 46 47 48 49 50
612
ASUS44 KLIX 180201
RWRLIX
NEW ORLEANS REGIONAL WEATHER ROUNDUP
NATIONAL WEATHER SERVICE NEW ORLEANS LA
800 PM CST WED DEC 17 2014

NOTE: "FAIR" INDICATES FEW OR NO CLOUDS BELOW 12,000 FEET WITH NO
      SIGNIFICANT WEATHER AND/OR OBSTRUCTIONS TO VISIBILITY.
      SKY/WX - SKY CONDITION AND SIGNIFICANT WEATHER.
      TMP - AIR TEMPERATURE.     DP    - DEWPOINT TEMPERATURE.
      RH  - RELATIVE HUMIDITY.   PRES  - PRESSURE.
      HI  - HEAT INDEX.          WCI   - WIND CHILL INDEX.

*  THESE STATIONS ARE NOT NWS OR FAA STATIONS AND ARE NOT UNDER
   NWS QUALITY CONTROL.

LAZ038-040-048-061>063-065>067-069-180300-
SOUTHEAST LOUISIANA

CITY           SKY/WX    TMP DP  RH WIND       PRES   REMARKS
N.O. AUDUBON     N/A     54  44  68 MISG        N/A
N.O. INTL ARPT MOCLDY    52  41  66 E5        30.20R
N.O. LAKEFRONT MOCLDY    54  42  64 CALM      30.21R
N.O. DOWNTOWN*   N/A     55  37  50 CALM      30.21R
SLIDELL        MOCLDY    45  42  89 CALM      30.20R
BATON ROUGE    PTCLDY    49  41  74 E5        30.19S
BOOTHVILLE     PTCLDY    53  49  86 E5        30.21S
BELLE CHASSE   MOCLDY    47  42  83 CALM      30.20R
BOGALUSA*        N/A     46  43  87 CALM      30.22R
GALLIANO*      NOT AVBL
NEW ROADS*     NOT AVBL
GONZALES*      NOT AVBL
HAMMOND*       NOT AVBL
HOUMA*         NOT AVBL
PORT FOURCHON* CLEAR     57  50  77 E7        30.22S

$$

MSZ070-080>082-180300-
SOUTHERN MISSISSIPPI

CITY           SKY/WX    TMP DP  RH WIND       PRES   REMARKS
MCCOMB         PTCLDY    50  41  71 CALM      30.20R
GULFPORT       PTCLDY    46  41  82 CALM      30.20R
BILOXI         PTCLDY    50  42  73 NE3       30.19S
PASCAGOULA     CLEAR     38  37  97 CALM      30.20F

$$

COASTAL OBSERVATIONS
LAKE AND NEARSHORE STATIONS

STATION/POSITION TIME  TEMP    WIND        PRES    WAVE
                       AIR SEA DIR/SP/G            HT/PER
                 (UTC) (F)     (DEG/KT/KT) (MB)    (FT/S)
PASCAGOULA       0100   49     100/  1/  2 1022.0
WAVELAND YACHT   0100   52     360/  1/  1 1021.6
GRAND ISLE       0100   56 62  100/  5/  9 1022.8
SOUTHWEST PASS   0100   54                 1022.9
NEW CANAL        0100   53 58  140/  1/  2 1023.2
SHELL BEACH      0100   53 60  140/  4/  5 1022.2

OFFSHORE STATIONS

STATION/POSITION TIME  TEMP    WIND        PRES    WAVE
                       AIR SEA DIR/SP/G            HT/PER
                 (UTC) (F)     (DEG/KT/KT) (MB)    (FT/S)
64 S DAUPHIN ISL 0200   60 74   30/  6/ 10 1022.4    1/ 4

$$




USA.gov is the U.S. government's official web portal to all federal, state and local government web resources and services.